Time,TemperatureF,DewpointF,PressureIn,WindDirection,WindDirectionDegrees,WindSpeedMPH,WindSpeedGustMPH,Humidity,HourlyPrecipIn,Conditions,Clouds,dailyrainin,SoftwareType,DateUTC
2013-10-07 00:03:00,53.1,45.8,29.99,North,0,2.0,4.7,76,0.00,,,0.00,WUHU21623XXSP,2013-10-07 05:03:00,
2013-10-07 00:08:00,52.9,45.6,29.99,North,359,1.1,4.7,76,0.00,,,0.00,WUHU21623XXSP,2013-10-07 05:08:00,
2013-10-07 00:13:00,52.9,45.6,29.99,NNW,337,1.4,2.2,76,0.00,,,0.00,WUHU21623XXSP,2013-10-07 05:13:00,
2013-10-07 00:18:00,52.5,45.2,29.99,NNW,337,1.4,2.2,76,0.00,,,0.00,WUHU21623XXSP,2013-10-07 05:18:00,
2013-10-07 00:23:00,52.5,45.2,29.98,NNW,337,0.0,1.8,76,0.00,,,0.00,WUHU21623XXSP,2013-10-07 05:23:00,
2013-10-07 00:28:00,52.3,45.0,29.98,NNW,337,0.0,1.1,76,0.00,,,0.00,WUHU21623XXSP,2013-10-07 05:28:00,
2013-10-07 00:33:00,52.0,45.1,29.98,NNW,337,0.0,0.0,77,0.00,,,0.00,WUHU21623XXSP,2013-10-07 05:33:00,
2013-10-07 00:38:00,51.8,45.2,29.98,NNW,337,0.0,0.0,78,0.00,,,0.00,WUHU21623XXSP,2013-10-07 05:38:00,
2013-10-07 00:43:00,51.6,45.0,29.98,NNW,337,0.0,0.0,78,0.00,,,0.00,WUHU21623XXSP,2013-10-07 05:43:00,
2013-10-07 00:48:00,51.4,44.8,29.98,NNW,337,0.0,0.0,78,0.00,,,0.00,WUHU21623XXSP,2013-10-07 05:48:00,
2013-10-07 00:53:00,51.4,45.2,29.98,NNW,337,0.0,0.0,79,0.00,,,0.00,WUHU21623XXSP,2013-10-07 05:53:00,
2013-10-07 00:58:00,51.1,44.9,29.98,SE,135,0.7,0.7,79,0.00,,,0.00,WUHU21623XXSP,2013-10-07 05:58:00,
2013-10-07 01:03:00,50.7,44.5,29.98,SE,135,0.0,0.7,79,0.00,,,0.00,WUHU21623XXSP,2013-10-07 06:03:00,
2013-10-07 01:08:00,50.5,44.3,29.98,SE,135,0.0,0.0,79,0.00,,,0.00,WUHU21623XXSP,2013-10-07 06:08:00,
2013-10-07 01:13:00,50.4,44.2,29.98,SE,135,0.0,0.0,79,0.00,,,0.00,WUHU21623XXSP,2013-10-07 06:13:00,
2013-10-07 01:18:00,50.2,44.0,29.98,SE,135,0.0,0.0,79,0.00,,,0.00,WUHU21623XXSP,2013-10-07 06:18:00,
2013-10-07 01:23:00,50.2,44.0,29.97,SE,135,0.0,0.0,79,0.00,,,0.00,WUHU21623XXSP,2013-10-07 06:23:00,
2013-10-07 01:28:00,49.8,43.6,29.98,SE,135,0.0,0.0,79,0.00,,,0.00,WUHU21623XXSP,2013-10-07 06:28:00,
2013-10-07 01:33:00,49.8,43.6,29.98,SE,135,0.0,0.0,79,0.00,,,0.00,WUHU21623XXSP,2013-10-07 06:33:00,
2013-10-07 01:38:00,49.6,43.7,29.98,SE,135,0.0,0.0,80,0.00,,,0.00,WUHU21623XXSP,2013-10-07 06:38:00,
2013-10-07 01:43:00,49.6,43.7,29.98,SE,135,0.0,0.0,80,0.00,,,0.00,WUHU21623XXSP,2013-10-07 06:43:00,
2013-10-07 01:48:00,49.6,43.7,29.98,SE,135,0.0,0.0,80,0.00,,,0.00,WUHU21623XXSP,2013-10-07 06:48:00,
2013-10-07 01:53:00,49.6,43.7,29.98,SE,135,0.0,0.2,80,0.00,,,0.00,WUHU21623XXSP,2013-10-07 06:53:00,
2013-10-07 01:58:00,49.6,43.7,29.98,SE,135,0.0,0.2,80,0.00,,,0.00,WUHU21623XXSP,2013-10-07 06:58:00,
2013-10-07 02:03:00,49.3,43.4,29.98,SE,135,0.0,0.0,80,0.00,,,0.00,WUHU21623XXSP,2013-10-07 07:03:00,
2013-10-07 02:08:00,49.3,43.4,29.98,SE,135,0.0,0.0,80,0.00,,,0.00,WUHU21623XXSP,2013-10-07 07:08:00,
2013-10-07 02:13:00,49.3,43.4,29.98,SE,135,0.0,0.0,80,0.00,,,0.00,WUHU21623XXSP,2013-10-07 07:13:00,
2013-10-07 02:18:00,49.1,43.2,29.97,SE,135,0.0,0.0,80,0.00,,,0.00,WUHU21623XXSP,2013-10-07 07:18:00,
2013-10-07 02:23:00,49.1,43.2,29.97,SE,135,0.0,0.0,80,0.00,,,0.00,WUHU21623XXSP,2013-10-07 07:23:00,
2013-10-07 02:28:00,48.9,43.0,29.97,SE,135,0.0,0.0,80,0.00,,,0.00,WUHU21623XXSP,2013-10-07 07:28:00,
2013-10-07 02:33:00,48.9,43.0,29.97,SSE,157,0.4,0.9,80,0.00,,,0.00,WUHU21623XXSP,2013-10-07 07:33:00,
2013-10-07 02:38:00,48.9,43.0,29.97,SSE,157,0.0,0.9,80,0.00,,,0.00,WUHU21623XXSP,2013-10-07 07:38:00,
2013-10-07 02:43:00,48.7,42.8,29.97,SSE,157,0.0,0.0,80,0.00,,,0.00,WUHU21623XXSP,2013-10-07 07:43:00,
2013-10-07 02:48:00,48.7,42.8,29.96,SSE,157,0.0,0.0,80,0.00,,,0.00,WUHU21623XXSP,2013-10-07 07:48:00,
2013-10-07 02:53:00,48.6,42.7,29.97,SSE,157,0.7,0.7,80,0.00,,,0.00,WUHU21623XXSP,2013-10-07 07:53:00,
2013-10-07 02:58:00,48.7,42.5,29.97,SSE,157,0.9,0.9,79,0.00,,,0.00,WUHU21623XXSP,2013-10-07 07:58:00,
2013-10-07 03:03:00,48.9,42.7,29.97,SSE,157,0.0,0.9,79,0.00,,,0.00,WUHU21623XXSP,2013-10-07 08:03:00,
2013-10-07 03:08:00,48.7,42.5,29.96,SSE,157,0.0,0.0,79,0.00,,,0.00,WUHU21623XXSP,2013-10-07 08:08:00,
2013-10-07 03:13:00,48.7,42.5,29.96,SSE,157,0.0,0.0,79,0.00,,,0.00,WUHU21623XXSP,2013-10-07 08:13:00,
2013-10-07 03:18:00,48.6,42.4,29.96,SSE,157,1.1,1.1,79,0.00,,,0.00,WUHU21623XXSP,2013-10-07 08:18:00,
2013-10-07 03:23:00,48.6,42.4,29.96,SSE,157,0.0,1.6,79,0.00,,,0.00,WUHU21623XXSP,2013-10-07 08:23:00,
2013-10-07 03:29:00,48.6,42.4,29.96,SSE,157,0.0,1.6,79,0.00,,,0.00,WUHU21623XXSP,2013-10-07 08:29:00,
2013-10-07 03:34:00,48.4,41.9,29.96,South,180,1.6,2.2,78,0.00,,,0.00,WUHU21623XXSP,2013-10-07 08:34:00,
2013-10-07 03:39:00,48.6,42.1,29.96,South,180,1.6,2.9,78,0.00,,,0.00,WUHU21623XXSP,2013-10-07 08:39:00,
2013-10-07 03:44:00,48.7,42.2,29.96,South,180,1.1,2.9,78,0.00,,,0.00,WUHU21623XXSP,2013-10-07 08:44:00,
2013-10-07 03:49:00,48.7,41.9,29.97,South,180,1.0,2.0,77,0.00,,,0.00,WUHU21623XXSP,2013-10-07 08:49:00,
2013-10-07 03:54:00,48.9,42.1,29.97,South,180,0.4,1.6,77,0.00,,,0.00,WUHU21623XXSP,2013-10-07 08:54:00,
2013-10-07 03:59:00,48.7,41.9,29.97,SSW,201,1.0,2.0,77,0.00,,,0.00,WUHU21623XXSP,2013-10-07 08:59:00,
2013-10-07 04:04:00,48.7,41.9,29.97,SSW,202,0.0,2.0,77,0.00,,,0.00,WUHU21623XXSP,2013-10-07 09:04:00,
2013-10-07 04:09:00,48.7,41.9,29.97,SSW,195,1.3,1.6,77,0.00,,,0.00,WUHU21623XXSP,2013-10-07 09:09:00,
2013-10-07 04:14:00,48.7,41.5,29.97,South,180,2.0,2.0,76,0.00,,,0.00,WUHU21623XXSP,2013-10-07 09:14:00,
2013-10-07 04:19:00,48.6,41.4,29.97,SSW,202,0.9,2.0,76,0.00,,,0.00,WUHU21623XXSP,2013-10-07 09:19:00,
2013-10-07 04:24:00,48.6,41.4,29.97,SSW,202,2.0,3.1,76,0.00,,,0.00,WUHU21623XXSP,2013-10-07 09:24:00,
2013-10-07 04:29:00,48.4,41.2,29.97,SSW,202,1.6,3.1,76,0.00,,,0.00,WUHU21623XXSP,2013-10-07 09:29:00,
2013-10-07 04:34:00,48.4,41.2,29.97,SSW,202,0.7,1.6,76,0.00,,,0.00,WUHU21623XXSP,2013-10-07 09:34:00,
2013-10-07 04:39:00,48.4,41.2,29.97,SW,225,1.0,1.6,76,0.00,,,0.00,WUHU21623XXSP,2013-10-07 09:39:00,
2013-10-07 04:44:00,48.0,40.9,29.97,SSW,202,0.0,1.6,76,0.00,,,0.00,WUHU21623XXSP,2013-10-07 09:44:00,
2013-10-07 04:49:00,48.0,40.9,29.97,SSW,202,0.3,0.7,76,0.00,,,0.00,WUHU21623XXSP,2013-10-07 09:49:00,
2013-10-07 04:54:00,48.0,40.9,29.97,SSW,202,0.5,1.3,76,0.00,,,0.00,WUHU21623XXSP,2013-10-07 09:54:00,
2013-10-07 04:59:00,48.0,40.9,29.98,SW,222,2.1,4.9,76,0.00,,,0.00,WUHU21623XXSP,2013-10-07 09:59:00,
2013-10-07 05:04:00,47.8,40.7,29.98,SSW,202,0.0,4.9,76,0.00,,,0.00,WUHU21623XXSP,2013-10-07 10:04:00,
2013-10-07 05:09:00,47.8,40.7,29.98,SW,225,1.8,1.8,76,0.00,,,0.00,WUHU21623XXSP,2013-10-07 10:09:00,
2013-10-07 05:14:00,47.8,40.7,29.98,SW,225,1.4,2.0,76,0.00,,,0.00,WUHU21623XXSP,2013-10-07 10:14:00,
2013-10-07 05:19:00,47.7,40.6,29.99,WSW,247,2.3,3.4,76,0.00,,,0.00,WUHU21623XXSP,2013-10-07 10:19:00,
2013-10-07 05:24:00,47.5,40.4,29.99,SW,225,0.8,3.4,76,0.00,,,0.00,WUHU21623XXSP,2013-10-07 10:24:00,
2013-10-07 05:29:00,47.3,40.2,29.99,SW,220,1.4,3.1,76,0.00,,,0.00,WUHU21623XXSP,2013-10-07 10:29:00,
2013-10-07 05:34:00,47.3,40.5,29.99,SSW,202,0.0,3.1,77,0.00,,,0.00,WUHU21623XXSP,2013-10-07 10:34:00,
2013-10-07 05:39:00,47.1,40.3,30.00,SSW,202,1.2,1.6,77,0.00,,,0.00,WUHU21623XXSP,2013-10-07 10:39:00,
2013-10-07 05:44:00,47.1,40.3,30.00,NW,315,0.0,3.1,77,0.00,,,0.00,WUHU21623XXSP,2013-10-07 10:44:00,
2013-10-07 05:49:00,47.1,40.3,30.00,NW,315,0.0,3.1,77,0.00,,,0.00,WUHU21623XXSP,2013-10-07 10:49:00,
2013-10-07 05:54:00,46.9,40.1,30.00,NW,315,0.7,1.4,77,0.00,,,0.00,WUHU21623XXSP,2013-10-07 10:54:00,
2013-10-07 05:59:00,46.9,40.1,30.00,NW,315,0.0,1.4,77,0.00,,,0.00,WUHU21623XXSP,2013-10-07 10:59:00,
2013-10-07 06:04:00,46.9,40.1,30.00,NW,315,0.0,0.0,77,0.00,,,0.00,WUHU21623XXSP,2013-10-07 11:04:00,
2013-10-07 06:09:00,46.9,40.1,30.00,NW,315,0.0,0.0,77,0.00,,,0.00,WUHU21623XXSP,2013-10-07 11:09:00,
2013-10-07 06:14:00,46.9,39.8,30.00,NW,315,0.0,0.0,76,0.00,,,0.00,WUHU21623XXSP,2013-10-07 11:14:00,
2013-10-07 06:19:00,46.9,39.8,30.00,NW,315,0.0,0.0,76,0.00,,,0.00,WUHU21623XXSP,2013-10-07 11:19:00,
2013-10-07 06:24:00,46.8,40.0,30.00,NW,315,0.0,0.0,77,0.00,,,0.00,WUHU21623XXSP,2013-10-07 11:24:00,
2013-10-07 06:29:00,46.8,40.0,30.01,NW,315,1.1,1.8,77,0.00,,,0.00,WUHU21623XXSP,2013-10-07 11:29:00,
2013-10-07 06:34:00,46.6,39.8,30.01,NW,315,0.0,1.8,77,0.00,,,0.00,WUHU21623XXSP,2013-10-07 11:34:00,
2013-10-07 06:39:00,46.6,39.8,30.02,NW,315,0.0,1.3,77,0.00,,,0.00,WUHU21623XXSP,2013-10-07 11:39:00,
2013-10-07 06:44:00,46.6,39.5,30.02,NW,315,0.0,0.0,76,0.00,,,0.00,WUHU21623XXSP,2013-10-07 11:44:00,
2013-10-07 06:49:00,46.6,39.5,30.02,WSW,247,0.0,1.1,76,0.00,,,0.00,WUHU21623XXSP,2013-10-07 11:49:00,
2013-10-07 06:54:00,46.6,39.5,30.02,WNW,292,0.0,1.1,76,0.00,,,0.00,WUHU21623XXSP,2013-10-07 11:54:00,
2013-10-07 06:59:00,46.6,39.5,30.02,West,270,0.8,1.3,76,0.00,,,0.00,WUHU21623XXSP,2013-10-07 11:59:00,
2013-10-07 07:04:00,46.6,39.5,30.03,West,270,0.0,1.3,76,0.00,,,0.00,WUHU21623XXSP,2013-10-07 12:04:00,
2013-10-07 07:09:00,46.6,39.5,30.03,NNW,337,0.0,0.0,76,0.00,,,0.00,WUHU21623XXSP,2013-10-07 12:09:00,
2013-10-07 07:14:00,46.6,39.5,30.03,NNW,337,0.0,0.0,76,0.00,,,0.00,WUHU21623XXSP,2013-10-07 12:14:00,
2013-10-07 07:19:00,46.6,39.5,30.03,NW,315,0.0,0.0,76,0.00,,,0.00,WUHU21623XXSP,2013-10-07 12:19:00,
2013-10-07 07:24:00,46.8,39.7,30.04,NW,315,0.0,0.0,76,0.00,,,0.00,WUHU21623XXSP,2013-10-07 12:24:00,
2013-10-07 07:29:00,46.9,39.8,30.04,NW,315,0.0,0.0,76,0.00,,,0.00,WUHU21623XXSP,2013-10-07 12:29:00,
2013-10-07 07:34:00,46.9,39.8,30.04,NW,315,0.0,0.0,76,0.00,,,0.00,WUHU21623XXSP,2013-10-07 12:34:00,
2013-10-07 07:39:00,47.1,39.7,30.04,NW,315,0.4,0.4,75,0.00,,,0.00,WUHU21623XXSP,2013-10-07 12:39:00,
2013-10-07 07:44:00,47.1,39.7,30.05,NNW,337,1.4,2.2,75,0.00,,,0.00,WUHU21623XXSP,2013-10-07 12:44:00,
2013-10-07 07:49:00,47.5,40.4,30.04,NW,315,3.6,3.6,76,0.00,,,0.00,WUHU21623XXSP,2013-10-07 12:49:00,
2013-10-07 07:54:00,48.0,40.5,30.04,North,0,0.8,3.6,75,0.00,,,0.00,WUHU21623XXSP,2013-10-07 12:54:00,
2013-10-07 07:59:00,48.6,41.1,30.05,NNW,329,1.7,4.7,75,0.00,,,0.00,WUHU21623XXSP,2013-10-07 12:59:00,
2013-10-07 08:04:00,49.5,41.6,30.05,North,352,1.3,4.7,74,0.00,,,0.00,WUHU21623XXSP,2013-10-07 13:04:00,
2013-10-07 08:09:00,50.5,42.6,30.05,North,0,4.0,5.8,74,0.00,,,0.00,WUHU21623XXSP,2013-10-07 13:09:00,
2013-10-07 08:14:00,52.0,44.1,30.05,NNE,13,3.4,7.6,74,0.00,,,0.00,WUHU21623XXSP,2013-10-07 13:14:00,
2013-10-07 08:19:00,53.2,45.2,30.05,North,10,3.9,7.6,74,0.00,,,0.00,WUHU21623XXSP,2013-10-07 13:19:00,
2013-10-07 08:24:00,53.8,46.5,30.06,NNE,22,7.4,8.1,76,0.00,,,0.00,WUHU21623XXSP,2013-10-07 13:24:00,
2013-10-07 08:29:00,54.1,47.5,30.06,North,355,7.7,8.9,78,0.00,,,0.00,WUHU21623XXSP,2013-10-07 13:29:00,
2013-10-07 08:34:00,55.0,48.3,30.06,North,9,5.4,8.9,78,0.00,,,0.00,WUHU21623XXSP,2013-10-07 13:34:00,
2013-10-07 08:39:00,55.6,49.2,30.06,North,0,7.2,8.9,79,0.00,,,0.00,WUHU21623XXSP,2013-10-07 13:39:00,
2013-10-07 08:44:00,55.9,49.5,30.06,NE,45,7.2,8.5,79,0.00,,,0.00,WUHU21623XXSP,2013-10-07 13:44:00,
2013-10-07 08:49:00,56.1,49.7,30.06,NE,45,8.1,9.2,79,0.00,,,0.00,WUHU21623XXSP,2013-10-07 13:49:00,
2013-10-07 08:54:00,56.3,49.6,30.06,NNE,29,5.3,9.2,78,0.00,,,0.00,WUHU21623XXSP,2013-10-07 13:54:00,
2013-10-07 08:59:00,56.5,49.5,30.06,NNE,14,7.3,9.8,77,0.00,,,0.00,WUHU21623XXSP,2013-10-07 13:59:00,
2013-10-07 09:04:00,56.5,49.5,30.06,NNE,27,6.7,9.8,77,0.00,,,0.00,WUHU21623XXSP,2013-10-07 14:04:00,
2013-10-07 09:09:00,56.7,49.6,30.07,North,0,9.2,9.8,77,0.00,,,0.00,WUHU21623XXSP,2013-10-07 14:09:00,
2013-10-07 09:14:00,57.0,49.6,30.07,NE,45,5.8,9.4,76,0.00,,,0.00,WUHU21623XXSP,2013-10-07 14:14:00,
2013-10-07 09:19:00,57.4,50.0,30.07,NNE,22,7.8,9.4,76,0.00,,,0.00,WUHU21623XXSP,2013-10-07 14:19:00,
2013-10-07 09:24:00,57.7,49.9,30.07,NNE,22,10.5,11.2,75,0.00,,,0.00,WUHU21623XXSP,2013-10-07 14:24:00,
2013-10-07 09:29:00,57.9,50.1,30.07,NNE,22,10.5,12.3,75,0.00,,,0.00,WUHU21623XXSP,2013-10-07 14:29:00,
2013-10-07 09:34:00,58.1,49.6,30.08,NNE,23,9.4,16.3,73,0.00,,,0.00,WUHU21623XXSP,2013-10-07 14:34:00,
2013-10-07 09:39:00,58.1,49.2,30.07,NNE,22,10.1,16.3,72,0.00,,,0.00,WUHU21623XXSP,2013-10-07 14:39:00,
2013-10-07 09:44:00,58.1,49.2,30.08,NNE,26,8.5,16.1,72,0.00,,,0.00,WUHU21623XXSP,2013-10-07 14:44:00,
2013-10-07 09:49:00,58.3,49.4,30.08,NNE,22,12.1,16.6,72,0.00,,,0.00,WUHU21623XXSP,2013-10-07 14:49:00,
2013-10-07 09:54:00,58.5,49.3,30.08,NE,45,9.8,16.6,71,0.00,,,0.00,WUHU21623XXSP,2013-10-07 14:54:00,
2013-10-07 09:59:00,58.8,49.9,30.08,NNE,22,10.1,13.9,72,0.00,,,0.00,WUHU21623XXSP,2013-10-07 14:59:00,
2013-10-07 10:04:00,58.8,49.2,30.08,NNE,22,13.2,17.0,70,0.00,,,0.00,WUHU21623XXSP,2013-10-07 15:04:00,
2013-10-07 10:09:00,59.2,49.6,30.08,ENE,67,9.8,17.2,70,0.00,,,0.00,WUHU21623XXSP,2013-10-07 15:09:00,
2013-10-07 10:14:00,59.2,49.6,30.08,NNE,18,9.5,17.2,70,0.00,,,0.00,WUHU21623XXSP,2013-10-07 15:14:00,
2013-10-07 10:19:00,58.8,49.2,30.08,NNE,33,8.3,15.9,70,0.00,,,0.00,WUHU21623XXSP,2013-10-07 15:19:00,
2013-10-07 10:24:00,59.2,49.9,30.08,NE,45,6.9,11.4,71,0.00,,,0.00,WUHU21623XXSP,2013-10-07 15:24:00,
2013-10-07 10:29:00,60.1,50.8,30.08,NE,45,6.7,11.4,71,0.00,,,0.00,WUHU21623XXSP,2013-10-07 15:29:00,
2013-10-07 10:34:00,60.6,50.5,30.08,NNE,22,11.9,15.9,69,0.00,,,0.00,WUHU21623XXSP,2013-10-07 15:34:00,
2013-10-07 10:39:00,61.0,50.9,30.08,NNE,31,7.6,15.9,69,0.00,,,0.00,WUHU21623XXSP,2013-10-07 15:39:00,
2013-10-07 10:44:00,60.6,49.7,30.08,NNE,22,8.3,14.8,67,0.00,,,0.00,WUHU21623XXSP,2013-10-07 15:44:00,
2013-10-07 10:49:00,60.6,50.1,30.08,North,0,11.2,14.8,68,0.00,,,0.00,WUHU21623XXSP,2013-10-07 15:49:00,
2013-10-07 10:54:00,60.4,49.5,30.09,North,357,10.0,14.1,67,0.00,,,0.00,WUHU21623XXSP,2013-10-07 15:54:00,
2013-10-07 10:59:00,60.6,49.7,30.09,North,0,10.7,14.1,67,0.00,,,0.00,WUHU21623XXSP,2013-10-07 15:59:00,
2013-10-07 11:04:00,60.6,49.7,30.09,North,11,8.4,13.4,67,0.00,,,0.00,WUHU21623XXSP,2013-10-07 16:04:00,
2013-10-07 11:09:00,61.0,50.1,30.09,NNE,22,10.5,13.4,67,0.00,,,0.00,WUHU21623XXSP,2013-10-07 16:09:00,
2013-10-07 11:14:00,60.8,49.9,30.09,NE,38,6.0,23.0,67,0.00,,,0.00,WUHU21623XXSP,2013-10-07 16:14:00,
2013-10-07 11:19:00,61.5,50.6,30.09,North,11,8.7,23.0,67,0.00,,,0.00,WUHU21623XXSP,2013-10-07 16:19:00,
2013-10-07 11:24:00,61.5,49.8,30.10,North,0,9.9,15.4,65,0.00,,,0.00,WUHU21623XXSP,2013-10-07 16:24:00,
2013-10-07 11:29:00,61.3,50.0,30.09,North,0,6.7,14.8,66,0.00,,,0.00,WUHU21623XXSP,2013-10-07 16:29:00,
2013-10-07 11:34:00,61.9,51.4,30.09,NNE,22,6.5,12.1,68,0.00,,,0.00,WUHU21623XXSP,2013-10-07 16:34:00,
2013-10-07 11:39:00,62.4,51.0,30.09,NNE,22,11.2,15.4,66,0.00,,,0.00,WUHU21623XXSP,2013-10-07 16:39:00,
2013-10-07 11:44:00,62.2,50.0,30.09,North,0,11.0,15.4,64,0.00,,,0.00,WUHU21623XXSP,2013-10-07 16:44:00,
2013-10-07 11:49:00,62.4,50.2,30.09,North,4,9.8,13.6,64,0.00,,,0.00,WUHU21623XXSP,2013-10-07 16:49:00,
2013-10-07 11:54:00,62.4,50.2,30.09,NNW,337,10.1,13.6,64,0.00,,,0.00,WUHU21623XXSP,2013-10-07 16:54:00,
2013-10-07 11:59:00,62.8,50.6,30.09,North,3,10.8,13.0,64,0.00,,,0.00,WUHU21623XXSP,2013-10-07 16:59:00,
2013-10-07 12:04:00,63.5,51.7,30.09,North,351,9.2,13.4,65,0.00,,,0.00,WUHU21623XXSP,2013-10-07 17:04:00,
2013-10-07 12:09:00,64.6,52.3,30.09,NNE,22,4.5,13.4,64,0.00,,,0.00,WUHU21623XXSP,2013-10-07 17:09:00,
2013-10-07 12:14:00,64.6,52.3,30.09,North,0,7.2,9.8,64,0.00,,,0.00,WUHU21623XXSP,2013-10-07 17:14:00,
2013-10-07 12:19:00,64.6,51.0,30.09,NNE,22,10.1,13.6,61,0.00,,,0.00,WUHU21623XXSP,2013-10-07 17:19:00,
2013-10-07 12:24:00,64.2,50.2,30.09,NNE,14,8.1,13.6,60,0.00,,,0.00,WUHU21623XXSP,2013-10-07 17:24:00,
2013-10-07 12:29:00,64.0,50.9,30.09,North,0,10.3,12.5,62,0.00,,,0.00,WUHU21623XXSP,2013-10-07 17:29:00,
2013-10-07 12:34:00,64.6,51.9,30.09,NW,315,5.4,16.1,63,0.00,,,0.00,WUHU21623XXSP,2013-10-07 17:34:00,
2013-10-07 12:39:00,65.1,51.5,30.08,North,8,10.4,16.1,61,0.00,,,0.00,WUHU21623XXSP,2013-10-07 17:39:00,
2013-10-07 12:44:00,64.9,51.3,30.08,NNE,27,6.3,15.4,61,0.00,,,0.00,WUHU21623XXSP,2013-10-07 17:44:00,
2013-10-07 12:49:00,65.3,52.5,30.09,NNW,327,7.6,13.2,63,0.00,,,0.00,WUHU21623XXSP,2013-10-07 17:49:00,
2013-10-07 12:54:00,66.0,51.9,30.08,North,2,12.3,15.9,60,0.00,,,0.00,WUHU21623XXSP,2013-10-07 17:54:00,
2013-10-07 12:59:00,65.8,51.7,30.08,NNE,18,5.2,15.9,60,0.00,,,0.00,WUHU21623XXSP,2013-10-07 17:59:00,
2013-10-07 13:04:00,65.7,52.0,30.08,North,359,9.2,13.4,61,0.00,,,0.00,WUHU21623XXSP,2013-10-07 18:04:00,
2013-10-07 13:09:00,65.8,51.7,30.08,North,0,9.8,13.4,60,0.00,,,0.00,WUHU21623XXSP,2013-10-07 18:09:00,
2013-10-07 13:14:00,66.0,52.3,30.08,North,356,9.3,12.5,61,0.00,,,0.00,WUHU21623XXSP,2013-10-07 18:14:00,
2013-10-07 13:19:00,66.2,52.1,30.08,North,0,12.3,15.4,60,0.00,,,0.00,WUHU21623XXSP,2013-10-07 18:19:00,
2013-10-07 13:24:00,66.0,51.4,30.08,NNE,22,7.8,15.4,59,0.00,,,0.00,WUHU21623XXSP,2013-10-07 18:24:00,
2013-10-07 13:29:00,65.8,51.2,30.08,NNE,13,8.9,15.0,59,0.00,,,0.00,WUHU21623XXSP,2013-10-07 18:29:00,
2013-10-07 13:34:00,65.8,50.8,30.07,NNE,22,17.4,17.4,58,0.00,,,0.00,WUHU21623XXSP,2013-10-07 18:34:00,
2013-10-07 13:39:00,65.7,51.1,30.07,NNE,30,3.4,17.4,59,0.00,,,0.00,WUHU21623XXSP,2013-10-07 18:39:00,
2013-10-07 13:44:00,65.8,51.7,30.07,NE,45,7.6,13.9,60,0.00,,,0.00,WUHU21623XXSP,2013-10-07 18:44:00,
2013-10-07 13:49:00,66.4,52.7,30.07,NNW,339,5.0,11.9,61,0.00,,,0.00,WUHU21623XXSP,2013-10-07 18:49:00,
2013-10-07 13:54:00,66.7,52.5,30.07,NW,315,14.3,17.4,60,0.00,,,0.00,WUHU21623XXSP,2013-10-07 18:54:00,
2013-10-07 13:59:00,67.3,52.2,30.07,North,10,9.5,17.4,58,0.00,,,0.00,WUHU21623XXSP,2013-10-07 18:59:00,
2013-10-07 14:04:00,67.1,51.5,30.07,NE,43,7.0,14.3,57,0.00,,,0.00,WUHU21623XXSP,2013-10-07 19:04:00,
2013-10-07 14:09:00,67.1,52.4,30.07,NNW,335,10.5,14.3,59,0.00,,,0.00,WUHU21623XXSP,2013-10-07 19:09:00,
2013-10-07 14:14:00,67.6,52.4,30.06,NNE,22,4.5,13.9,58,0.00,,,0.00,WUHU21623XXSP,2013-10-07 19:14:00,
2013-10-07 14:19:00,67.8,52.2,30.07,North,356,14.9,17.2,57,0.00,,,0.00,WUHU21623XXSP,2013-10-07 19:19:00,
2013-10-07 14:24:00,67.8,52.2,30.07,NNW,348,11.7,17.2,57,0.00,,,0.00,WUHU21623XXSP,2013-10-07 19:24:00,
2013-10-07 14:29:00,67.8,51.7,30.07,North,357,7.3,16.6,56,0.00,,,0.00,WUHU21623XXSP,2013-10-07 19:29:00,
2013-10-07 14:34:00,68.2,52.0,30.07,NNE,22,12.5,12.5,56,0.00,,,0.00,WUHU21623XXSP,2013-10-07 19:34:00,
2013-10-07 14:39:00,68.2,51.5,30.06,North,3,9.3,18.1,55,0.00,,,0.00,WUHU21623XXSP,2013-10-07 19:39:00,
2013-10-07 14:44:00,67.6,51.5,30.06,North,0,7.8,18.1,56,0.00,,,0.00,WUHU21623XXSP,2013-10-07 19:44:00,
2013-10-07 14:49:00,67.3,51.7,30.06,NE,45,8.5,10.1,57,0.00,,,0.00,WUHU21623XXSP,2013-10-07 19:49:00,
2013-10-07 14:54:00,67.3,51.2,30.07,NNE,21,8.8,15.7,56,0.00,,,0.00,WUHU21623XXSP,2013-10-07 19:54:00,
2013-10-07 14:59:00,67.6,52.0,30.06,NNE,22,11.6,15.7,57,0.00,,,0.00,WUHU21623XXSP,2013-10-07 19:59:00,
2013-10-07 15:04:00,67.6,51.5,30.06,East,90,7.2,17.0,56,0.00,,,0.00,WUHU21623XXSP,2013-10-07 20:04:00,
2013-10-07 15:09:00,67.6,51.5,30.06,NNE,15,12.9,17.0,56,0.00,,,0.00,WUHU21623XXSP,2013-10-07 20:09:00,
2013-10-07 15:14:00,67.6,51.5,30.06,North,0,13.2,17.0,56,0.00,,,0.00,WUHU21623XXSP,2013-10-07 20:14:00,
2013-10-07 15:19:00,67.6,51.0,30.06,North,0,14.3,17.4,55,0.00,,,0.00,WUHU21623XXSP,2013-10-07 20:19:00,
2013-10-07 15:24:00,67.6,51.0,30.06,North,0,13.6,17.4,55,0.00,,,0.00,WUHU21623XXSP,2013-10-07 20:24:00,
2013-10-07 15:29:00,67.6,52.0,30.06,North,350,11.1,15.0,57,0.00,,,0.00,WUHU21623XXSP,2013-10-07 20:29:00,
2013-10-07 15:34:00,67.8,51.7,30.06,NNW,337,7.4,15.0,56,0.00,,,0.00,WUHU21623XXSP,2013-10-07 20:34:00,
2013-10-07 15:39:00,67.8,51.7,30.07,North,357,12.9,15.9,56,0.00,,,0.00,WUHU21623XXSP,2013-10-07 20:39:00,
2013-10-07 15:44:00,67.8,51.7,30.07,North,6,8.3,15.9,56,0.00,,,0.00,WUHU21623XXSP,2013-10-07 20:44:00,
2013-10-07 15:50:00,68.0,51.8,30.07,NE,45,8.9,13.9,56,0.00,,,0.00,WUHU21623XXSP,2013-10-07 20:50:00,
2013-10-07 15:55:00,68.2,52.5,30.06,North,0,6.7,13.9,57,0.00,,,0.00,WUHU21623XXSP,2013-10-07 20:55:00,
2013-10-07 16:00:00,68.2,51.5,30.06,NNE,22,7.8,17.4,55,0.00,,,0.00,WUHU21623XXSP,2013-10-07 21:00:00,
2013-10-07 16:04:00,68.2,52.0,30.06,NNW,343,8.8,17.4,56,0.00,,,0.00,WUHU21623XXSP,2013-10-07 21:04:00,
2013-10-07 16:09:00,68.2,51.5,30.06,NNE,22,9.6,16.6,55,0.00,,,0.00,WUHU21623XXSP,2013-10-07 21:09:00,
2013-10-07 16:14:00,67.8,51.2,30.06,North,357,7.6,16.6,55,0.00,,,0.00,WUHU21623XXSP,2013-10-07 21:14:00,
2013-10-07 16:19:00,67.8,51.7,30.06,North,0,11.2,17.2,56,0.00,,,0.00,WUHU21623XXSP,2013-10-07 21:19:00,
2013-10-07 16:24:00,67.8,51.2,30.06,NE,41,8.0,17.2,55,0.00,,,0.00,WUHU21623XXSP,2013-10-07 21:24:00,
2013-10-07 16:29:00,67.8,51.2,30.06,NE,45,6.7,16.8,55,0.00,,,0.00,WUHU21623XXSP,2013-10-07 21:29:00,
2013-10-07 16:34:00,67.6,51.0,30.06,North,0,13.6,16.6,55,0.00,,,0.00,WUHU21623XXSP,2013-10-07 21:34:00,
2013-10-07 16:39:00,67.6,51.0,30.06,NNE,22,11.0,16.6,55,0.00,,,0.00,WUHU21623XXSP,2013-10-07 21:39:00,
2013-10-07 16:44:00,67.6,50.5,30.05,North,10,11.6,16.3,54,0.00,,,0.00,WUHU21623XXSP,2013-10-07 21:44:00,
2013-10-07 16:49:00,67.6,51.0,30.05,North,3,6.9,16.3,55,0.00,,,0.00,WUHU21623XXSP,2013-10-07 21:49:00,
2013-10-07 16:54:00,67.5,50.9,30.06,NNE,22,9.4,12.8,55,0.00,,,0.00,WUHU21623XXSP,2013-10-07 21:54:00,
2013-10-07 16:59:00,67.3,50.7,30.06,North,2,9.0,12.8,55,0.00,,,0.00,WUHU21623XXSP,2013-10-07 21:59:00,
2013-10-07 17:04:00,67.3,50.2,30.05,North,0,11.0,14.3,54,0.00,,,0.00,WUHU21623XXSP,2013-10-07 22:04:00,
2013-10-07 17:09:00,67.1,50.5,30.06,North,358,6.7,14.3,55,0.00,,,0.00,WUHU21623XXSP,2013-10-07 22:09:00,
2013-10-07 17:14:00,67.1,50.0,30.06,North,356,9.7,12.5,54,0.00,,,0.00,WUHU21623XXSP,2013-10-07 22:14:00,
2013-10-07 17:19:00,66.9,49.8,30.06,North,0,8.9,12.5,54,0.00,,,0.00,WUHU21623XXSP,2013-10-07 22:19:00,
2013-10-07 17:24:00,66.9,50.3,30.06,NE,36,6.1,11.6,55,0.00,,,0.00,WUHU21623XXSP,2013-10-07 22:24:00,
2013-10-07 17:29:00,66.9,49.8,30.07,NNE,17,7.9,10.1,54,0.00,,,0.00,WUHU21623XXSP,2013-10-07 22:29:00,
2013-10-07 17:34:00,66.7,49.6,30.07,NNE,18,6.7,11.0,54,0.00,,,0.00,WUHU21623XXSP,2013-10-07 22:34:00,
2013-10-07 17:39:00,66.6,49.5,30.07,NNE,22,8.9,11.0,54,0.00,,,0.00,WUHU21623XXSP,2013-10-07 22:39:00,
2013-10-07 17:44:00,66.4,49.3,30.07,NNE,22,6.0,10.1,54,0.00,,,0.00,WUHU21623XXSP,2013-10-07 22:44:00,
2013-10-07 17:49:00,66.4,49.3,30.07,NNE,22,4.1,9.2,54,0.00,,,0.00,WUHU21623XXSP,2013-10-07 22:49:00,
2013-10-07 17:54:00,66.0,49.5,30.07,NNE,20,5.0,8.3,55,0.00,,,0.00,WUHU21623XXSP,2013-10-07 22:54:00,
2013-10-07 17:59:00,66.0,50.0,30.07,NNE,19,3.0,5.8,56,0.00,,,0.00,WUHU21623XXSP,2013-10-07 22:59:00,
2013-10-07 18:04:00,65.5,49.5,30.08,North,3,5.7,8.9,56,0.00,,,0.00,WUHU21623XXSP,2013-10-07 23:04:00,
2013-10-07 18:09:00,65.1,49.6,30.07,North,4,6.3,8.9,57,0.00,,,0.00,WUHU21623XXSP,2013-10-07 23:09:00,
2013-10-07 18:15:00,64.8,49.3,30.07,North,0,6.9,8.9,57,0.00,,,0.00,WUHU21623XXSP,2013-10-07 23:15:00,
2013-10-07 18:20:00,64.4,49.4,30.08,North,0,5.6,8.9,58,0.00,,,0.00,WUHU21623XXSP,2013-10-07 23:20:00,
2013-10-07 18:25:00,64.0,49.1,30.08,North,2,4.3,7.4,58,0.00,,,0.00,WUHU21623XXSP,2013-10-07 23:25:00,
2013-10-07 18:30:00,63.7,48.8,30.08,North,0,6.0,6.7,58,0.00,,,0.00,WUHU21623XXSP,2013-10-07 23:30:00,
2013-10-07 18:35:00,63.3,48.9,30.08,North,0,3.9,6.7,59,0.00,,,0.00,WUHU21623XXSP,2013-10-07 23:35:00,
2013-10-07 18:40:00,63.0,49.0,30.08,North,0,3.6,5.8,60,0.00,,,0.00,WUHU21623XXSP,2013-10-07 23:40:00,
2013-10-07 18:45:00,62.4,48.5,30.08,North,0,1.8,5.4,60,0.00,,,0.00,WUHU21623XXSP,2013-10-07 23:45:00,
2013-10-07 18:50:00,62.2,48.7,30.08,North,0,1.2,2.7,61,0.00,,,0.00,WUHU21623XXSP,2013-10-07 23:50:00,
2013-10-07 18:55:00,61.7,48.3,30.08,North,0,0.9,2.7,61,0.00,,,0.00,WUHU21623XXSP,2013-10-07 23:55:00,
2013-10-07 19:00:00,61.3,48.3,30.08,North,0,0.0,1.3,62,0.00,,,0.00,WUHU21623XXSP,2013-10-08 00:00:00,
2013-10-07 19:05:00,61.0,48.0,30.08,North,0,0.6,1.3,62,0.00,,,0.00,WUHU21623XXSP,2013-10-08 00:05:00,
2013-10-07 19:10:00,60.6,48.1,30.08,North,0,0.7,0.9,63,0.00,,,0.00,WUHU21623XXSP,2013-10-08 00:10:00,
2013-10-07 19:15:00,60.4,47.9,30.08,North,0,0.8,1.1,63,0.00,,,0.00,WUHU21623XXSP,2013-10-08 00:15:00,
2013-10-07 19:20:00,60.1,48.0,30.09,North,0,0.0,1.1,64,0.00,,,0.00,WUHU21623XXSP,2013-10-08 00:20:00,
2013-10-07 19:25:00,59.5,47.5,30.09,North,0,0.0,0.9,64,0.00,,,0.00,WUHU21623XXSP,2013-10-08 00:25:00,
2013-10-07 19:30:00,59.2,47.2,30.09,North,0,0.0,0.0,64,0.00,,,0.00,WUHU21623XXSP,2013-10-08 00:30:00,
2013-10-07 19:35:00,58.8,47.2,30.09,North,0,0.7,0.7,65,0.00,,,0.00,WUHU21623XXSP,2013-10-08 00:35:00,
2013-10-07 19:40:00,58.6,47.4,30.09,North,0,0.0,0.7,66,0.00,,,0.00,WUHU21623XXSP,2013-10-08 00:40:00,
2013-10-07 19:45:00,58.5,47.3,30.09,North,0,0.7,0.7,66,0.00,,,0.00,WUHU21623XXSP,2013-10-08 00:45:00,
2013-10-07 19:50:00,58.3,47.5,30.09,North,0,0.9,1.1,67,0.00,,,0.00,WUHU21623XXSP,2013-10-08 00:50:00,
2013-10-07 19:55:00,58.1,47.7,30.10,North,0,1.3,1.3,68,0.00,,,0.00,WUHU21623XXSP,2013-10-08 00:55:00,
2013-10-07 20:00:00,57.9,47.5,30.10,North,0,0.0,1.3,68,0.00,,,0.00,WUHU21623XXSP,2013-10-08 01:00:00,
2013-10-07 20:05:00,57.6,47.2,30.10,North,0,0.0,0.7,68,0.00,,,0.00,WUHU21623XXSP,2013-10-08 01:05:00,
2013-10-07 20:10:00,57.4,47.1,30.10,North,0,0.0,0.0,68,0.00,,,0.00,WUHU21623XXSP,2013-10-08 01:10:00,
2013-10-07 20:15:00,57.0,47.1,30.10,North,0,0.0,0.0,69,0.00,,,0.00,WUHU21623XXSP,2013-10-08 01:15:00,
2013-10-07 20:20:00,56.8,46.9,30.10,NNE,22,0.7,0.7,69,0.00,,,0.00,WUHU21623XXSP,2013-10-08 01:20:00,
2013-10-07 20:25:00,56.7,46.8,30.10,NE,45,0.7,0.9,69,0.00,,,0.00,WUHU21623XXSP,2013-10-08 01:25:00,
2013-10-07 20:30:00,56.5,47.0,30.11,NE,45,0.7,0.9,70,0.00,,,0.00,WUHU21623XXSP,2013-10-08 01:30:00,
2013-10-07 20:35:00,56.1,46.9,30.11,NE,45,0.0,0.9,71,0.00,,,0.00,WUHU21623XXSP,2013-10-08 01:35:00,
2013-10-07 20:40:00,55.9,47.1,30.11,NE,45,0.0,0.0,72,0.00,,,0.00,WUHU21623XXSP,2013-10-08 01:40:00,
2013-10-07 20:45:00,55.8,47.4,30.11,NE,36,1.2,2.2,73,0.00,,,0.00,WUHU21623XXSP,2013-10-08 01:45:00,
2013-10-07 20:50:00,55.8,47.4,30.12,NNE,22,0.9,2.2,73,0.00,,,0.00,WUHU21623XXSP,2013-10-08 01:50:00,
2013-10-07 20:55:00,55.9,47.8,30.12,NNE,22,0.3,1.6,74,0.00,,,0.00,WUHU21623XXSP,2013-10-08 01:55:00,
2013-10-07 21:00:00,55.8,47.7,30.12,NNE,22,1.2,2.2,74,0.00,,,0.00,WUHU21623XXSP,2013-10-08 02:00:00,
2013-10-07 21:05:00,55.9,47.8,30.12,NNE,22,1.3,2.5,74,0.00,,,0.00,WUHU21623XXSP,2013-10-08 02:05:00,
2013-10-07 21:10:00,55.9,47.8,30.12,NNE,22,0.8,2.5,74,0.00,,,0.00,WUHU21623XXSP,2013-10-08 02:10:00,
2013-10-07 21:15:00,55.9,47.8,30.12,NNE,22,0.9,2.0,74,0.00,,,0.00,WUHU21623XXSP,2013-10-08 02:15:00,
2013-10-07 21:20:00,55.9,47.8,30.13,NNE,22,0.0,0.9,74,0.00,,,0.00,WUHU21623XXSP,2013-10-08 02:20:00,
2013-10-07 21:25:00,55.4,47.3,30.13,NE,45,0.8,1.1,74,0.00,,,0.00,WUHU21623XXSP,2013-10-08 02:25:00,
2013-10-07 21:30:00,55.2,47.2,30.13,NE,45,0.0,1.1,74,0.00,,,0.00,WUHU21623XXSP,2013-10-08 02:30:00,
2013-10-07 21:35:00,55.2,47.2,30.13,NE,45,0.4,0.9,74,0.00,,,0.00,WUHU21623XXSP,2013-10-08 02:35:00,
2013-10-07 21:40:00,54.9,46.9,30.13,NE,45,0.0,0.9,74,0.00,,,0.00,WUHU21623XXSP,2013-10-08 02:40:00,
2013-10-07 21:45:00,54.5,46.8,30.13,NE,45,0.0,0.0,75,0.00,,,0.00,WUHU21623XXSP,2013-10-08 02:45:00,
2013-10-07 21:50:00,54.3,46.6,30.13,NE,45,0.0,0.0,75,0.00,,,0.00,WUHU21623XXSP,2013-10-08 02:50:00,
2013-10-07 21:55:00,54.1,46.4,30.13,NE,45,0.9,1.1,75,0.00,,,0.00,WUHU21623XXSP,2013-10-08 02:55:00,
2013-10-07 22:00:00,54.1,46.8,30.13,NE,45,1.6,2.0,76,0.00,,,0.00,WUHU21623XXSP,2013-10-08 03:00:00,
2013-10-07 22:05:00,54.0,47.0,30.13,NNE,22,1.1,2.0,77,0.00,,,0.00,WUHU21623XXSP,2013-10-08 03:05:00,
2013-10-07 22:10:00,54.0,47.0,30.13,NNE,22,0.9,2.0,77,0.00,,,0.00,WUHU21623XXSP,2013-10-08 03:10:00,
2013-10-07 22:15:00,53.8,46.8,30.13,NNE,22,1.1,2.9,77,0.00,,,0.00,WUHU21623XXSP,2013-10-08 03:15:00,
2013-10-07 22:20:00,53.4,46.4,30.13,NNE,22,1.8,2.9,77,0.00,,,0.00,WUHU21623XXSP,2013-10-08 03:20:00,
2013-10-07 22:25:00,53.4,46.8,30.13,NE,45,1.8,2.9,78,0.00,,,0.00,WUHU21623XXSP,2013-10-08 03:25:00,
2013-10-07 22:30:00,53.8,47.2,30.13,NE,45,1.7,3.6,78,0.00,,,0.00,WUHU21623XXSP,2013-10-08 03:30:00,
2013-10-07 22:35:00,53.8,47.2,30.13,NE,45,0.8,3.8,78,0.00,,,0.00,WUHU21623XXSP,2013-10-08 03:35:00,
2013-10-07 22:40:00,53.8,47.2,30.13,NE,45,0.0,3.8,78,0.00,,,0.00,WUHU21623XXSP,2013-10-08 03:40:00,
2013-10-07 22:45:00,53.8,47.2,30.13,ENE,67,0.0,0.7,78,0.00,,,0.00,WUHU21623XXSP,2013-10-08 03:45:00,
2013-10-07 22:50:00,53.4,46.8,30.13,ENE,67,0.7,1.1,78,0.00,,,0.00,WUHU21623XXSP,2013-10-08 03:50:00,
2013-10-07 22:55:00,53.2,46.6,30.13,ENE,67,0.7,1.1,78,0.00,,,0.00,WUHU21623XXSP,2013-10-08 03:55:00,
2013-10-07 23:00:00,52.9,46.3,30.13,ENE,67,0.0,1.1,78,0.00,,,0.00,WUHU21623XXSP,2013-10-08 04:00:00,
2013-10-07 23:01:00,52.9,46.3,30.13,ENE,67,0.0,1.1,78,0.00,,,0.00,WUHU21623XXSP,2013-10-08 04:01:00,
2013-10-07 23:06:00,52.7,46.4,30.13,ENE,67,0.0,0.0,79,0.00,,,0.00,WUHU21623XXSP,2013-10-08 04:06:00,
2013-10-07 23:11:00,52.5,46.2,30.13,ENE,67,0.0,0.0,79,0.00,,,0.00,WUHU21623XXSP,2013-10-08 04:11:00,
2013-10-07 23:16:00,52.3,46.0,30.13,ENE,67,0.0,0.0,79,0.00,,,0.00,WUHU21623XXSP,2013-10-08 04:16:00,
2013-10-07 23:21:00,52.3,45.7,30.14,ENE,67,0.0,0.0,78,0.00,,,0.00,WUHU21623XXSP,2013-10-08 04:21:00,
2013-10-07 23:26:00,52.2,45.6,30.13,NNE,22,1.3,1.3,78,0.00,,,0.00,WUHU21623XXSP,2013-10-08 04:26:00,
2013-10-07 23:31:00,51.6,45.0,30.13,NNE,22,0.7,1.3,78,0.00,,,0.00,WUHU21623XXSP,2013-10-08 04:31:00,
2013-10-07 23:36:00,51.4,44.8,30.13,NNE,22,0.7,1.3,78,0.00,,,0.00,WUHU21623XXSP,2013-10-08 04:36:00,
2013-10-07 23:41:00,51.1,44.9,30.13,NNE,22,0.9,0.9,79,0.00,,,0.00,WUHU21623XXSP,2013-10-08 04:41:00,
2013-10-07 23:46:00,50.9,44.7,30.13,NNE,22,1.1,1.8,79,0.00,,,0.00,WUHU21623XXSP,2013-10-08 04:46:00,
2013-10-07 23:52:00,50.7,44.5,30.13,NE,45,1.6,1.8,79,0.00,,,0.00,WUHU21623XXSP,2013-10-08 04:52:00,
2013-10-07 23:57:00,50.7,44.5,30.12,NE,45,1.2,2.5,79,0.00,,,0.00,WUHU21623XXSP,2013-10-08 04:57:00,